Home   Weather   Egersund   Past weeks

Flag for Norway Past Weather in Egersund, Norway — Yesterday and Last 2 Weeks

Now
57 °F

Cool.


Feels Like: 57 °F
Forecast: 55 / 65 °F
Wind: 1 mph from Northwest

Location: Ualand-Bjuland

Current Time: Aug 30, 2016 at 1:06:04 PM

Latest Report: Aug 30, 2016 at 12:00 PM


Visibility: N/A

Pressure: 30.09 "Hg

Humidity: 95%

Dew Point: 56 °F

Location of EgersundLocation

Past Weather in Egersund — Graph

°F

Egersund Temperature Yesterday

Maximum temperature yesterday: 64 °F (at 2:00 PM)
Minimum temperature yesterday: 47 °F (at 10:00 PM)
Average temperature yesterday: 56 °F

High & Low Weather Summary for the Past Weeks

 TemperatureHumidityPressure
High72 °F (Aug 16, 3:00 PM)100% (Aug 17, 6:00 AM)30.27 "Hg (Aug 17, 6:00 AM)
Low45 °F (Aug 16, 7:00 AM)47% (Aug 15, 2:00 PM)29.71 "Hg (Aug 20, 2:00 PM)
Average59 °F85%30.01 "Hg
* Reported Aug 15 11:00 AM — Aug 30 11:00 AM, Egersund, Weather by CustomWeather, © 2016

Note: Actual official high and low records may vary slightly from our data, if they occured in-between our weather recording intervals... More about our weather records

Advertising

Egersund Weather History for the Previous 24 Hours

Scroll right to see more
 ConditionsComfort  
Time TempWeatherWind HumidityBarometerVisibility
11:00 AM
Tue, Aug 30
55 °FCool.1 mph94%30.08 "HgN/A
10:00 AM54 °FCool.1 mph95%30.06 "HgN/A
9:00 AM53 °FCool.1 mph96%30.06 "HgN/A
8:00 AM52 °FOvercast.1 mph95%30.06 "Hg37 mi
7:00 AM51 °FCool.1 mph96%30.06 "HgN/A
6:00 AM51 °FCool.No wind95%30.05 "HgN/A
5:00 AM50 °FCool.1 mph96%30.06 "HgN/A
4:00 AM50 °FCool.1 mph95%30.06 "HgN/A
3:00 AM51 °FCool.1 mph89%30.06 "HgN/A
2:00 AM49 °FCool.1 mph97%30.06 "HgN/A
1:00 AM48 °FCool.2 mph95%30.06 "HgN/A
12:00 AM50 °FCool.1 mph94%30.06 "HgN/A
11:00 PM
Mon, Aug 29
48 °FCool.2 mph94%30.05 "HgN/A
10:00 PM47 °FCool.1 mph89%30.04 "HgN/A
9:00 PM54 °FCool.1 mph73%30.02 "HgN/A
8:00 PM55 °FPassing clouds.1 mph72%30.00 "Hg47 mi
7:00 PM58 °FCool.2 mph61%29.99 "HgN/A
6:00 PM60 °FRefreshingly cool.5 mph56%29.97 "HgN/A
5:00 PM60 °FCool.6 mph60%29.96 "HgN/A
4:00 PM61 °FRefreshingly cool.5 mph58%29.94 "HgN/A
3:00 PM62 °FRefreshingly cool.6 mph55%29.93 "HgN/A
2:00 PM64 °FOvercast.6 mph59%29.91 "Hg47 mi
1:00 PM63 °FMild.6 mph58%29.89 "HgN/A
Weather by CustomWeather, © 2016

See weather overviewHow to use our weather pages